| time (UTC) | temp C | wind direction | speed KPH | gust KPH | rain 1hr cm | rain 24hr cm | rain mn cm | humidity % | barometer mb |
| 20260503202604 | 16 | 255 | 0.0 | 0.0 | 0.00 | 0.00 | 0.00 | 94 | 1017.0 |
| 20260503202104 | 16 | 255 | 0.0 | 0.0 | 0.00 | 0.00 | 0.00 | 94 | 1017.0 |
| 20260503201603 | 16 | 255 | 0.0 | 0.0 | 0.00 | 0.00 | 0.00 | 94 | 1017.0 |
| 20260503201104 | 16 | 255 | 0.0 | 1.6 | 0.00 | 0.00 | 0.00 | 94 | 1016.9 |
| 20260503200604 | 16 | 255 | 1.6 | 3.2 | 0.00 | 0.00 | 0.00 | 94 | 1016.9 |
| 20260503200104 | 15 | 255 | 1.6 | 3.2 | 0.00 | 0.00 | 0.00 | 94 | 1016.9 |
| 20260503195604 | 15 | 255 | 0.0 | 0.0 | 0.00 | 0.00 | 0.00 | 94 | 1016.8 |
| 20260503195104 | 15 | 255 | 0.0 | 1.6 | 0.00 | 0.00 | 0.00 | 94 | 1016.7 |
| 20260503194604 | 15 | 255 | 1.6 | 3.2 | 0.00 | 0.00 | 0.00 | 94 | 1016.7 |
| 20260503193604 | 15 | 255 | 3.2 | 4.8 | 0.00 | 0.00 | 0.00 | 94 | 1016.6 |
| 20260503193103 | 15 | 255 | 1.6 | 4.8 | 0.00 | 0.00 | 0.00 | 94 | 1016.6 |
| 20260503192604 | 15 | 255 | 1.6 | 3.2 | 0.00 | 0.00 | 0.00 | 94 | 1016.6 |
| 20260503192104 | 15 | 255 | 1.6 | 4.8 | 0.00 | 0.00 | 0.00 | 94 | 1016.5 |
| 20260503191604 | 15 | 255 | 1.6 | 1.6 | 0.00 | 0.00 | 0.00 | 94 | 1016.6 |
| 20260503191104 | 15 | 255 | 0.0 | 0.0 | 0.00 | 0.00 | 0.00 | 94 | 1016.6 |
| 20260503190104 | 15 | 255 | 0.0 | 1.6 | 0.00 | 0.00 | 0.00 | 94 | 1016.7 |
| 20260503185604 | 15 | 255 | 1.6 | 3.2 | 0.00 | 0.00 | 0.00 | 94 | 1016.6 |
| 20260503185104 | 15 | 255 | 1.6 | 4.8 | 0.00 | 0.00 | 0.00 | 94 | 1016.6 |
| 20260503184604 | 15 | 255 | 3.2 | 4.8 | 0.00 | 0.00 | 0.00 | 94 | 1016.7 |
| 20260503184104 | 15 | 255 | 1.6 | 3.2 | 0.00 | 0.00 | 0.00 | 94 | 1016.7 |
| 20260503183604 | 15 | 255 | 0.0 | 1.6 | 0.00 | 0.00 | 0.00 | 94 | 1016.7 |
| 20260503183104 | 15 | 255 | 0.0 | 1.6 | 0.00 | 0.00 | 0.00 | 94 | 1016.6 |
| 20260503182604 | 15 | 255 | 0.0 | 1.6 | 0.00 | 0.00 | 0.00 | 94 | 1016.6 |
| 20260503182104 | 15 | 255 | 0.0 | 0.0 | 0.00 | 0.00 | 0.00 | 94 | 1016.6 |
| 20260503181604 | 15 | 255 | 1.6 | 3.2 | 0.00 | 0.00 | 0.00 | 94 | 1016.7 |
| 20260503181104 | 15 | 255 | 1.6 | 3.2 | 0.00 | 0.00 | 0.00 | 94 | 1016.8 |
| 20260503180604 | 15 | 255 | 0.0 | 1.6 | 0.00 | 0.00 | 0.00 | 94 | 1016.6 |
| 20260503180104 | 15 | 255 | 0.0 | 1.6 | 0.00 | 0.00 | 0.00 | 94 | 1016.6 |
| 20260503175604 | 15 | 255 | 0.0 | 1.6 | 0.00 | 0.00 | 0.00 | 94 | 1016.6 |
| 20260503174104 | 15 | 255 | 0.0 | 1.6 | 0.00 | 0.00 | 0.00 | 94 | 1016.6 |
| 20260503173604 | 15 | 255 | 0.0 | 1.6 | 0.00 | 0.00 | 0.00 | 94 | 1016.6 |
| 20260503173104 | 15 | 255 | 0.0 | 0.0 | 0.00 | 0.00 | 0.00 | 94 | 1016.7 |
| 20260503172604 | 15 | 255 | 0.0 | 1.6 | 0.00 | 0.00 | 0.00 | 94 | 1016.7 |
| 20260503172104 | 15 | 255 | 1.6 | 3.2 | 0.00 | 0.00 | 0.00 | 94 | 1016.7 |
| 20260503171604 | 15 | 255 | 1.6 | 3.2 | 0.00 | 0.00 | 0.00 | 94 | 1016.8 |
| 20260503171104 | 15 | 255 | 0.0 | 1.6 | 0.00 | 0.00 | 0.00 | 94 | 1016.8 |
| 20260503170604 | 15 | 255 | 1.6 | 3.2 | 0.00 | 0.00 | 0.00 | 93 | 1016.8 |
| 20260503170104 | 15 | 255 | 0.0 | 3.2 | 0.00 | 0.00 | 0.00 | 93 | 1016.9 |
| 20260503160105 | 15 | 88 | 1.6 | 3.2 | 0.00 | 0.00 | 0.00 | 93 | 1017.7 |
| 20260503140104 | 16 | 33 | 0.0 | 0.0 | 0.00 | 0.00 | 0.00 | 92 | 1018.5 |
| 20260503131104 | 17 | 33 | 0.0 | 0.0 | 0.00 | 0.00 | 0.00 | 91 | 1019.0 |
| 20260503130604 | 17 | 33 | 0.0 | 0.0 | 0.00 | 0.00 | 0.00 | 91 | 1019.0 |
| 20260503130104 | 17 | 33 | 0.0 | 0.0 | 0.00 | 0.00 | 0.00 | 91 | 1019.0 |
| 20260503120105 | 18 | 33 | 0.0 | 3.2 | 0.00 | 0.00 | 0.00 | 89 | 1019.6 |
| 20260503110604 | 19 | 33 | 0.0 | 0.0 | 0.00 | 0.00 | 0.00 | 86 | 1019.4 |
| 20260503110104 | 19 | 33 | 0.0 | 0.0 | 0.00 | 0.00 | 0.00 | 85 | 1019.4 |
| 20260503100104 | 20 | 40 | 4.8 | 4.8 | 0.00 | 0.00 | 0.00 | 83 | 1019.0 |
| 20260503090104 | 21 | 60 | 4.8 | 8.0 | 0.00 | 0.00 | 0.00 | 80 | 1019.1 |
| 20260503081604 | 21 | 62 | 4.8 | 11.3 | 0.00 | 0.00 | 0.00 | 77 | 1019.1 |
| 20260503081104 | 21 | 60 | 4.8 | 9.7 | 0.00 | 0.00 | 0.00 | 78 | 1018.9 |
| 20260503080604 | 21 | 75 | 3.2 | 11.3 | 0.00 | 0.00 | 0.00 | 77 | 1018.9 |
| 20260503080104 | 21 | 71 | 4.8 | 11.3 | 0.00 | 0.00 | 0.00 | 77 | 1018.9 |
| 20260503072604 | 22 | 52 | 9.7 | 14.5 | 0.00 | 0.00 | 0.00 | 74 | 1018.8 |
| 20260503072105 | 22 | 52 | 9.7 | 14.5 | 0.00 | 0.00 | 0.00 | 74 | 1018.7 |
| 20260503071104 | 22 | 46 | 11.3 | 19.3 | 0.00 | 0.00 | 0.00 | 73 | 1018.6 |
| 20260503070604 | 22 | 47 | 12.9 | 24.1 | 0.00 | 0.00 | 0.00 | 73 | 1018.6 |
| 20260503070104 | 22 | 53 | 9.7 | 19.3 | 0.00 | 0.00 | 0.00 | 72 | 1018.6 |
| 20260503060104 | 24 | 48 | 9.7 | 20.9 | 0.00 | 0.00 | 0.00 | 68 | 1018.6 |
| 20260503054604 | 25 | 79 | 16.1 | 20.9 | 0.00 | 0.00 | 0.00 | 66 | 1018.6 |
| 20260503053604 | 25 | 67 | 11.3 | 25.7 | 0.00 | 0.00 | 0.00 | 61 | 1018.6 |
| 20260503053104 | 25 | 104 | 12.9 | 19.3 | 0.00 | 0.00 | 0.00 | 63 | 1018.7 |
| 20260503052604 | 25 | 84 | 9.7 | 19.3 | 0.00 | 0.00 | 0.00 | 61 | 1018.8 |
| 20260503052104 | 25 | 80 | 9.7 | 20.9 | 0.00 | 0.00 | 0.00 | 58 | 1018.9 |
| 20260503051605 | 25 | 74 | 9.7 | 16.1 | 0.00 | 0.00 | 0.00 | 57 | 1018.9 |
| 20260503051105 | 25 | 57 | 11.3 | 19.3 | 0.00 | 0.00 | 0.00 | 57 | 1019.0 |
| 20260503050605 | 25 | 49 | 9.7 | 19.3 | 0.00 | 0.00 | 0.00 | 56 | 1018.9 |
| 20260503050104 | 25 | 67 | 11.3 | 19.3 | 0.00 | 0.00 | 0.00 | 57 | 1019.0 |
| 20260503045605 | 25 | 29 | 11.3 | 22.5 | 0.00 | 0.00 | 0.00 | 56 | 1019.0 |
| 20260503045104 | 25 | 82 | 8.0 | 19.3 | 0.00 | 0.00 | 0.00 | 56 | 1019.1 |
| 20260503044604 | 25 | 55 | 11.3 | 19.3 | 0.00 | 0.00 | 0.00 | 56 | 1019.0 |
| 20260503043105 | 25 | 30 | 9.7 | 14.5 | 0.00 | 0.00 | 0.00 | 56 | 1019.2 |
| 20260503042604 | 25 | 30 | 11.3 | 19.3 | 0.00 | 0.00 | 0.00 | 56 | 1019.1 |
| 20260503042104 | 25 | 35 | 12.9 | 24.1 | 0.00 | 0.00 | 0.00 | 56 | 1019.3 |
| 20260503041104 | 24 | 31 | 11.3 | 19.3 | 0.00 | 0.00 | 0.00 | 56 | 1019.3 |
| 20260503040104 | 25 | 50 | 14.5 | 19.3 | 0.00 | 0.00 | 0.00 | 55 | 1019.4 |
| 20260503035603 | 25 | 47 | 8.0 | 14.5 | 0.00 | 0.00 | 0.00 | 55 | 1019.4 |
| 20260503035104 | 25 | 52 | 8.0 | 14.5 | 0.00 | 0.00 | 0.00 | 58 | 1019.5 |
| 20260503034104 | 25 | 4 | 6.4 | 16.1 | 0.00 | 0.00 | 0.00 | 59 | 1019.6 |
| 20260503033104 | 25 | 22 | 8.0 | 19.3 | 0.00 | 0.00 | 0.00 | 60 | 1019.6 |
| 20260503032604 | 25 | 48 | 9.7 | 19.3 | 0.00 | 0.00 | 0.00 | 58 | 1019.7 |
| 20260503032104 | 25 | 17 | 6.4 | 14.5 | 0.00 | 0.00 | 0.00 | 59 | 1019.8 |
| 20260503031104 | 24 | 73 | 6.4 | 12.9 | 0.00 | 0.00 | 0.00 | 59 | 1019.9 |
| 20260503030103 | 25 | 18 | 8.0 | 19.3 | 0.00 | 0.00 | 0.00 | 58 | 1020.1 |
| 20260503025604 | 25 | 357 | 9.7 | 14.5 | 0.00 | 0.00 | 0.00 | 58 | 1020.2 |
| 20260503025103 | 25 | 21 | 3.2 | 14.5 | 0.00 | 0.00 | 0.00 | 59 | 1020.5 |
| 20260503024603 | 25 | 355 | 12.9 | 19.3 | 0.00 | 0.00 | 0.00 | 58 | 1020.6 |
| 20260503024104 | 25 | 13 | 9.7 | 19.3 | 0.00 | 0.00 | 0.00 | 59 | 1020.6 |
| 20260503023104 | 25 | 357 | 4.8 | 12.9 | 0.00 | 0.00 | 0.00 | 60 | 1020.8 |
| 20260503022604 | 24 | 13 | 9.7 | 19.3 | 0.00 | 0.00 | 0.00 | 62 | 1020.7 |
| 20260503022103 | 24 | 16 | 8.0 | 12.9 | 0.00 | 0.00 | 0.00 | 62 | 1020.8 |
| 20260503021604 | 24 | 71 | 6.4 | 14.5 | 0.00 | 0.00 | 0.00 | 62 | 1021.1 |
| 20260503021103 | 24 | 352 | 6.4 | 11.3 | 0.00 | 0.00 | 0.00 | 62 | 1021.1 |
| 20260503020604 | 24 | 29 | 3.2 | 11.3 | 0.00 | 0.00 | 0.00 | 61 | 1021.2 |
| 20260503020104 | 24 | 314 | 3.2 | 11.3 | 0.00 | 0.00 | 0.00 | 63 | 1021.3 |
| 20260503015604 | 23 | 11 | 3.2 | 11.3 | 0.00 | 0.00 | 0.00 | 64 | 1021.6 |
| 20260503015104 | 23 | 331 | 4.8 | 11.3 | 0.00 | 0.00 | 0.00 | 64 | 1021.6 |
| 20260503014605 | 23 | 347 | 3.2 | 8.0 | 0.00 | 0.00 | 0.00 | 65 | 1021.8 |
| 20260503014104 | 23 | 310 | 4.8 | 14.5 | 0.00 | 0.00 | 0.00 | 64 | 1021.8 |
| 20260503013604 | 23 | 19 | 4.8 | 14.5 | 0.00 | 0.00 | 0.00 | 66 | 1021.9 |
| 20260503013104 | 22 | 0 | 3.2 | 12.9 | 0.00 | 0.00 | 0.00 | 66 | 1022.1 |
| 20260503012604 | 22 | 44 | 1.6 | 8.0 | 0.00 | 0.00 | 0.00 | 65 | 1022.3 |
| 20260503012104 | 23 | 3 | 8.0 | 11.3 | 0.00 | 0.00 | 0.00 | 66 | 1022.3 |
| 20260503011604 | 22 | 312 | 4.8 | 12.9 | 0.00 | 0.00 | 0.00 | 66 | 1022.4 |
| 20260503011104 | 22 | 27 | 4.8 | 14.5 | 0.00 | 0.00 | 0.00 | 69 | 1022.5 |
| 20260503010604 | 22 | 0 | 8.0 | 12.9 | 0.00 | 0.00 | 0.00 | 68 | 1022.4 |
| 20260503005604 | 23 | 16 | 8.0 | 14.5 | 0.00 | 0.00 | 0.00 | 66 | 1022.6 |
| 20260503004604 | 22 | 275 | 3.2 | 11.3 | 0.00 | 0.00 | 0.00 | 69 | 1022.8 |
| 20260503003604 | 22 | 334 | 4.8 | 14.5 | 0.00 | 0.00 | 0.00 | 70 | 1023.0 |
| 20260503002104 | 21 | 13 | 1.6 | 4.8 | 0.00 | 0.00 | 0.00 | 73 | 1023.2 |
| 20260503001604 | 21 | 22 | 6.4 | 11.3 | 0.00 | 0.00 | 0.00 | 73 | 1023.2 |
| 20260503001104 | 21 | 24 | 4.8 | 9.7 | 0.00 | 0.00 | 0.00 | 74 | 1023.2 |
| 20260503000604 | 21 | 18 | 3.2 | 12.9 | 0.00 | 0.00 | 0.00 | 75 | 1023.1 |
| 20260503000104 | 21 | 14 | 4.8 | 9.7 | 0.00 | 0.00 | 0.00 | 76 | 1023.2 |
| 20260502234603 | 20 | 22 | 6.4 | 9.7 | 0.00 | 0.00 | 0.00 | 78 | 1023.1 |
| 20260502233604 | 20 | 39 | 8.0 | 9.7 | 0.00 | 0.00 | 0.00 | 79 | 1023.2 |
| 20260502233103 | 20 | 32 | 6.4 | 11.3 | 0.00 | 0.00 | 0.00 | 81 | 1023.3 |
| 20260502232604 | 20 | 29 | 8.0 | 11.3 | 0.00 | 0.00 | 0.00 | 80 | 1023.4 |
| 20260502232104 | 20 | 25 | 8.0 | 11.3 | 0.00 | 0.00 | 0.00 | 81 | 1023.5 |
| 20260502231104 | 19 | 35 | 3.2 | 4.8 | 0.00 | 0.00 | 0.00 | 82 | 1023.5 |
| 20260502230604 | 19 | 254 | 3.2 | 4.8 | 0.00 | 0.00 | 0.00 | 83 | 1023.6 |
| 20260502225105 | 17 | 253 | 0.0 | 1.6 | 0.00 | 0.00 | 0.00 | 87 | 1023.7 |
| 20260502224605 | 17 | 253 | 0.0 | 1.6 | 0.00 | 0.00 | 0.00 | 87 | 1023.7 |
| 20260502224104 | 17 | 253 | 0.0 | 3.2 | 0.00 | 0.00 | 0.00 | 89 | 1023.7 |
| 20260502223604 | 17 | 253 | 3.2 | 4.8 | 0.00 | 0.00 | 0.00 | 90 | 1023.7 |
| 20260502223104 | 17 | 253 | 3.2 | 4.8 | 0.00 | 0.00 | 0.00 | 90 | 1023.8 |
| 20260502222604 | 16 | 253 | 3.2 | 4.8 | 0.00 | 0.00 | 0.00 | 91 | 1023.7 |
| 20260502222104 | 16 | 253 | 1.6 | 3.2 | 0.00 | 0.00 | 0.00 | 93 | 1023.6 |
| 20260502221604 | 16 | 253 | 1.6 | 4.8 | 0.00 | 0.00 | 0.00 | 93 | 1023.6 |
| 20260502221104 | 15 | 253 | 3.2 | 4.8 | 0.00 | 0.00 | 0.00 | 94 | 1023.6 |
| 20260502220604 | 15 | 253 | 3.2 | 4.8 | 0.00 | 0.00 | 0.00 | 94 | 1023.7 |
| 20260502220104 | 15 | 253 | 3.2 | 4.8 | 0.00 | 0.00 | 0.00 | 94 | 1023.5 |
| 20260502215104 | 15 | 49 | 1.6 | 1.6 | 0.00 | 0.00 | 0.00 | 95 | 1023.2 |
| 20260502214604 | 14 | 49 | 0.0 | 3.2 | 0.00 | 0.00 | 0.00 | 94 | 1023.3 |
| 20260502214104 | 14 | 49 | 1.6 | 1.6 | 0.00 | 0.00 | 0.00 | 94 | 1023.3 |
| 20260502212604 | 14 | 237 | 0.0 | 1.6 | 0.00 | 0.00 | 0.00 | 95 | 1023.0 |
| 20260502212105 | 14 | 237 | 0.0 | 1.6 | 0.00 | 0.00 | 0.00 | 95 | 1023.0 |
| 20260502211604 | 13 | 237 | 0.0 | 1.6 | 0.00 | 0.00 | 0.00 | 95 | 1022.9 |
| 20260502211104 | 13 | 237 | 0.0 | 3.2 | 0.00 | 0.00 | 0.00 | 94 | 1023.0 |
| 20260502210104 | 13 | 237 | 3.2 | 4.8 | 0.00 | 0.00 | 0.00 | 94 | 1023.1 |
| 20260502205604 | 13 | 237 | 3.2 | 4.8 | 0.00 | 0.00 | 0.00 | 94 | 1023.0 |
| 20260502205104 | 13 | 237 | 3.2 | 4.8 | 0.00 | 0.00 | 0.00 | 94 | 1023.0 |
| 20260502204604 | 13 | 237 | 1.6 | 3.2 | 0.00 | 0.00 | 0.00 | 94 | 1023.0 |
| 20260502204104 | 13 | 237 | 1.6 | 3.2 | 0.00 | 0.00 | 0.00 | 94 | 1022.9 |
| 20260502203604 | 13 | 237 | 1.6 | 3.2 | 0.00 | 0.00 | 0.00 | 94 | 1022.9 |
| 20260502203104 | 13 | 237 | 0.0 | 1.6 | 0.00 | 0.00 | 0.00 | 94 | 1022.9 |